Temp
21 21 21 21 21 21 22 21 22 23 24 23 24 23 22 22 23 22 22 22 22 22 22 22 22 22 22 23 22 22 22 23 22 22 21 21 22 21 21 21 21 22 21
21 21 21 21 21 21 21 21 22 23 23 22 23 23 22 22 22 22 23 23 22 22 22 22 22 22 23 23 22 22 22 22 22 21 21 21 22 22 21 20 20 21 21
21 21 21 21 21 20 21 21 21 22 23 23 22 22 22 23 22 22 22 22 22 22 22 22 23 23 23 23 22 23 22 22 22 21 21 21 21 22 21 21 20 20 20
21 21 21 21 20 20 20 21 21 21 22 23 23 22 22 23 23 23 23 22 22 23 23 23 23 23 23 23 23 22 22 21 22 20 21 21 21 21 20 20 20 20 19
22 21 21 21 21 20 20 20 21 21 22 22 23 23 22 23 23 23 23 23 23 23 23 23 23 23 23 23 23 23 22 21 21 21 21 21 20 21 20 20 20 19 20
22 22 21 21 21 21 22 21 21 22 22 22 22 23 23 23 23 23 23 23 24 24 24 24 23 24 23 23 23 23 22 21 21 21 21 21 21 20 20 20 19 20 20
21 21 21 21 21 21 21 21 21 22 22 22 23 23 24 24 24 24 23 24 24 24 24 24 23 23 23 23 23 23 22 21 21 21 21 21 21 20 20 20 20 19 19
22 21 21 21 21 21 21 21 21 21 22 22 23 24 24 24 24 24 24 24 24 25 24 24 24 23 22 22 23 22 22 22 21 21 21 21 21 20 20 19 19 19 20
22 22 21 21 21 21 21 22 22 23 23 23 24 24 24 24 24 25 25 24 25 25 25 25 24 23 22 23 22 22 21 22 22 21 21 21 20 20 20 20 21 20 20
22 22 22 22 22 21 21 21 22 23 23 23 23 24 24 24 25 25 25 25 25 26 26 25 24 23 23 21 21 21 21 22 22 21 21 21 21 20 20 20 21 20 20
21 22 22 22 22 22 22 22 22 23 23 24 24 24 24 25 25 26 26 25 25 26 25 25 24 24 23 22 22 22 22 21 21 21 21 21 21 21 21 20 20 20 20
21 22 22 22 22 22 22 23 23 23 23 24 24 24 25 25 25 26 26 26 25 25 25 25 25 24 24 23 22 22 21 21 21 21 21 21 21 21 20 20 21 20 20
21 22 22 22 22 22 23 23 23 23 23 24 24 24 25 25 26 26 26 26 25 25 25 25 25 24 23 23 22 22 22 21 21 21 21 21 21 20 20 20 20 20 20
21 22 22 22 22 23 24 24 23 23 23 24 24 25 25 25 26 26 26 26 26 25 25 25 24 24 23 23 22 22 22 22 21 21 21 21 21 20 20 20 20 20 20
21 22 22 22 22 23 24 24 23 23 24 24 24 24 25 25 25 26 26 26 26 25 25 25 24 24 23 23 22 22 22 21 21 21 20 20 20 20 20 20 19 19 19
22 23 23 23 23 23 24 24 23 23 24 24 24 24 25 25 25 25 26 26 25 25 25 25 24 24 23 23 22 22 21 21 21 21 21 20 20 20 19 19 20 19 19
23 23 23 23 23 23 24 24 24 24 24 24 24 24 24 25 25 25 26 26 25 25 25 25 24 24 23 23 22 22 21 21 21 21 21 20 19 19 19 19 19 19 19
23 23 23 23 23 23 24 25 25 24 25 25 24 25 24 24 25 25 25 25 25 25 25 24 24 24 23 23 22 21 21 21 21 21 20 20 20 19 18 18 18 19 19
24 24 23 23 24 23 24 24 24 24 24 25 25 25 24 24 24 25 25 25 25 25 25 24 24 24 23 22 22 22 21 20 20 21 20 20 19 19 18 18 18 19 19
24 24 24 23 24 24 24 23 23 23 24 24 25 25 24 24 24 25 25 24 24 25 24 24 24 23 23 22 22 21 21 20 21 20 20 19 18 18 18 18 18 18 18
25 24 24 24 24 23 23 22 22 23 23 24 24 24 24 24 24 25 25 25 25 25 24 24 24 23 22 22 22 21 21 20 20 20 19 19 18 18 18 17 17 17 18
25 25 25 24 24 24 24 23 23 24 24 24 24 24 24 24 24 24 25 25 24 25 24 24 24 22 22 23 22 22 19 20 19 18 18 18 17 18 18 17 17 17 17
26 25 25 25 25 25 24 23 23 23 23 24 23 24 24 24 24 24 24 24 24 24 24 24 23 23 22 23 23 22 19 19 20 18 18 17 17 17 17 17 17 16 16
26 26 25 25 25 24 24 23 23 23 23 24 24 24 24 24 24 24 24 24 24 24 24 24 24 23 23 23 23 22 22 22 19 17 17 17 17 17 17 17 16 17 16
25 25 26 25 25 25 24 24 24 23 24 24 24 24 24 24 23 24 24 24 23 23 23 23 23 23 23 23 23 23 22 22 22 19 16 16 16 16 16 17 17 17 17
26 25 25 25 25 25 25 24 24 24 24 23 24 23 24 24 24 23 23 23 23 23 23 23 23 23 23 23 23 23 22 22 21 21 17 16 16 16 16 16 17 17 17
Height
811 813 815 817 817 816 815 815 816 817 818 818 817 817 817 817 817 817 816 815 815 814 813 813 811 810 808 808 806 804 802 802 802 801 804 805 804 805 805 805 807 808 808
809 814 817 818 819 819 818 818 818 819 820 820 819 818 818 818 818 818 817 817 817 816 815 814 812 810 809 807 804 804 804 803 803 802 803 805 806 806 807 806 808 809 810
811 814 818 820 821 821 820 821 821 821 821 821 821 820 820 820 819 818 819 819 819 817 816 814 812 811 808 805 805 804 803 802 802 801 802 805 806 806 807 807 810 811 812
812 816 819 821 823 823 823 823 824 824 823 823 822 822 822 821 820 820 820 821 819 818 816 814 813 812 809 806 804 804 802 801 801 802 803 804 806 806 808 809 809 810 813
812 817 820 821 823 825 826 826 826 826 825 825 824 824 824 822 822 822 821 822 820 819 818 815 814 812 810 807 805 803 803 803 802 802 803 804 805 806 809 809 810 811 814
813 817 820 822 824 825 826 827 828 828 828 826 826 825 825 823 823 823 823 822 820 818 818 816 813 812 810 808 806 805 805 805 804 804 804 804 806 808 809 810 811 812 814
814 818 820 823 826 828 828 828 829 829 828 828 827 827 826 825 825 824 824 822 820 819 818 817 814 811 811 809 808 806 808 807 806 806 806 807 808 808 809 810 811 813 815
815 819 823 825 827 828 829 830 830 830 829 829 829 828 828 827 826 825 824 823 821 818 819 817 815 813 812 810 810 809 809 809 809 808 808 808 809 810 811 811 812 813 815
819 821 824 826 829 830 830 831 831 831 830 831 831 829 829 828 827 825 824 824 821 818 817 816 815 816 815 814 813 813 812 811 811 811 811 811 812 812 812 813 814 815 816
821 823 824 827 829 831 832 832 832 832 832 832 832 831 830 829 827 826 826 824 822 819 817 817 816 818 818 818 817 816 814 813 813 813 813 813 814 814 814 814 816 816 817
822 823 825 827 830 831 832 833 833 834 833 833 834 832 831 830 829 828 827 827 824 821 818 819 818 820 820 820 820 819 817 816 816 816 816 816 816 817 816 816 818 819 819
820 822 825 827 829 831 832 833 834 835 835 834 835 834 832 831 830 829 829 828 826 824 822 821 821 822 822 822 822 822 821 821 820 819 820 820 820 820 820 819 820 821 820
818 821 824 827 829 831 832 832 834 835 836 835 835 835 833 833 832 830 830 828 827 825 824 823 823 825 825 826 826 826 825 824 824 824 825 824 824 823 823 823 823 823 823
817 820 823 825 827 830 831 832 834 835 836 836 836 836 835 834 833 832 831 830 828 827 825 826 826 827 828 829 830 829 828 828 827 828 829 828 828 828 827 827 826 826 826
815 818 820 824 825 827 829 831 833 835 836 836 837 837 836 836 835 834 833 832 830 829 829 829 829 829 830 832 833 833 832 833 832 832 832 831 831 831 830 830 830 830 830
812 815 818 821 824 825 827 829 832 834 835 836 837 837 837 837 836 836 834 834 833 832 832 832 832 831 834 835 835 836 836 837 838 836 835 836 835 836 835 834 833 833 833
808 812 815 818 821 823 825 827 830 832 835 836 837 838 838 838 837 837 836 835 835 834 834 834 834 834 836 838 839 839 840 840 841 841 839 839 839 839 839 838 837 837 837
806 809 813 817 819 822 824 826 829 831 833 835 836 837 838 839 839 839 838 837 837 836 836 837 836 837 838 840 841 843 843 843 842 844 844 843 842 842 843 842 841 840 841
803 807 811 815 818 821 824 826 829 831 831 833 835 836 837 838 839 839 839 838 839 838 837 839 838 839 840 842 843 845 847 848 847 847 846 846 846 846 846 845 845 845 845
799 804 808 812 816 820 824 827 829 830 830 832 833 834 836 837 839 839 839 839 839 839 839 839 840 841 842 843 845 847 849 851 850 850 849 850 850 849 849 849 849 849 848
799 801 805 809 812 818 821 824 826 827 828 830 831 833 835 836 838 838 838 838 839 840 840 840 841 842 844 845 846 850 852 854 854 854 853 853 854 852 851 852 852 852 851
793 798 802 805 809 814 818 820 823 824 826 829 831 832 834 835 837 838 838 838 838 840 841 842 841 843 845 846 848 850 855 859 858 858 858 857 857 856 855 856 855 855 855
787 792 797 801 806 810 815 819 822 824 825 826 829 831 832 834 836 837 838 839 839 840 841 843 843 843 845 846 847 847 854 857 858 861 861 861 861 860 858 858 858 858 858
781 787 792 798 803 807 811 816 818 819 821 822 825 828 831 832 834 836 837 838 839 840 841 842 843 844 845 845 847 845 846 848 855 863 864 864 864 864 862 860 860 859 860
778 782 787 793 798 802 807 811 814 817 819 820 823 826 829 831 832 834 835 836 837 838 840 841 842 843 843 844 843 845 845 847 848 852 862 865 867 867 866 864 864 862 861
774 780 783 789 794 799 803 806 810 812 816 818 820 823 825 827 829 831 832 834 835 837 838 839 840 841 842 842 843 843 841 844 845 847 855 862 867 869 869 868 867 867 866
Wind_Speed
20 19 17 17 17 18 20 19 18 16 16 15 15 13 11 11 10 10 9 8 8 7 7 6 5 3 2 3 1 1 1 2 2 6 7 4 7 8 5 6 5 7 10
25 20 19 19 17 17 16 16 16 15 14 12 12 11 9 8 9 9 8 8 8 8 7 7 5 5 7 6 6 5 6 4 3 2 5 5 6 6 9 7 6 4 5
25 21 19 19 16 15 15 14 13 13 12 11 9 8 9 8 8 8 8 8 9 8 8 7 7 7 7 7 7 7 5 6 7 2 8 8 9 5 7 9 8 5 1
26 22 20 19 16 13 13 13 12 11 10 10 8 7 7 7 7 8 8 9 10 11 11 9 9 9 8 7 6 7 3 4 9 7 4 3 2 5 6 8 9 5 8
26 23 20 19 18 14 12 11 11 9 9 8 7 6 6 6 8 9 10 11 11 10 10 10 10 8 9 7 6 6 1 1 5 5 5 5 7 6 5 6 4 8 9
27 25 20 19 18 16 14 11 9 8 7 6 6 6 6 6 7 8 10 11 10 10 11 11 10 9 8 7 9 8 5 6 5 9 8 9 5 5 5 6 6 9 5
28 24 20 18 16 13 11 11 8 7 6 5 6 7 6 7 7 9 10 12 12 11 10 11 13 6 8 8 13 14 12 12 12 9 10 9 8 6 7 3 7 6 8
29 25 20 16 15 14 11 9 7 5 5 5 6 8 8 8 9 9 10 12 11 10 10 12 14 12 11 14 14 15 14 12 13 11 10 10 10 11 8 8 7 6 5
26 23 20 16 13 11 10 9 8 6 6 8 9 6 6 8 10 11 12 12 12 9 9 13 11 14 14 16 15 15 16 16 15 13 12 13 12 9 9 7 6 7 7
24 21 19 17 15 12 10 7 7 8 8 7 7 7 8 8 9 10 13 17 13 12 10 12 18 16 17 16 15 16 17 17 18 18 16 13 10 10 9 7 7 5 5
23 22 20 18 15 12 10 8 6 8 8 6 5 6 8 9 9 11 14 15 15 15 12 13 17 17 15 13 14 16 18 20 19 19 16 14 13 10 9 8 8 6 7
23 24 21 20 17 14 11 10 9 9 6 5 5 6 7 9 11 10 9 11 9 17 16 17 18 18 18 15 16 18 21 22 23 21 19 17 17 16 14 11 11 11 11
29 27 25 21 18 15 13 12 10 7 4 4 5 5 4 9 9 11 10 11 9 9 10 13 17 17 16 17 19 22 24 24 25 23 19 20 19 19 18 18 18 16 15
30 29 26 23 20 17 15 14 10 7 7 4 5 5 6 8 10 11 8 10 13 15 14 14 18 17 16 18 20 23 24 25 24 23 20 19 19 18 18 18 18 18 18
29 30 29 26 22 19 18 15 12 9 8 5 5 5 6 6 11 11 12 10 13 13 14 16 16 15 15 16 19 21 23 22 24 24 23 21 21 19 19 19 19 19 19
31 32 30 29 25 22 20 17 15 11 9 7 4 6 6 4 7 10 11 10 10 11 13 15 16 17 18 17 19 20 22 22 22 21 21 21 22 19 18 19 17 18 18
34 32 32 30 27 24 21 19 18 15 11 9 5 4 3 2 4 8 10 9 10 12 11 12 11 13 16 17 18 19 20 22 21 20 19 19 19 18 18 18 19 19 19
32 33 33 31 29 26 23 20 18 16 14 12 8 6 3 1 3 6 12 15 11 11 11 14 14 16 16 17 17 19 19 19 18 17 17 18 18 18 20 19 20 17 16
34 34 34 32 30 28 24 21 17 15 16 14 12 8 4 5 4 4 8 11 11 11 10 12 17 15 15 17 16 14 14 13 15 15 16 15 16 15 15 17 18 16 15
32 34 33 32 30 29 24 21 17 13 13 15 15 11 6 7 7 5 7 9 9 10 10 13 15 18 18 19 17 13 11 11 12 13 14 14 16 16 11 12 17 17 15
29 32 33 33 32 30 28 24 20 18 13 14 14 12 9 11 9 7 6 6 7 9 12 11 14 19 19 24 19 18 14 12 11 11 11 13 15 15 14 14 15 15 16
30 32 33 33 33 33 31 29 24 20 15 13 13 13 11 11 10 7 7 6 7 8 10 9 12 21 22 19 13 18 3 5 7 7 9 10 14 12 14 14 14 14 15
30 32 34 34 33 34 32 28 20 18 15 16 15 17 16 15 13 10 7 6 6 10 9 9 10 19 22 12 28 6 2 2 6 6 7 10 11 10 12 12 12 12 11
32 34 35 35 34 34 32 30 28 23 22 20 20 18 18 16 16 12 9 7 8 9 8 7 9 11 17 16 23 8 1 10 3 2 4 7 9 8 10 12 12 12 13
28 34 36 34 35 35 33 33 30 26 24 21 20 19 19 19 19 16 14 12 12 11 10 8 8 8 8 10 20 15 12 14 8 4 2 5 8 7 9 10 10 11 12
25 26 31 35 36 35 34 33 31 30 25 23 21 21 19 20 20 19 16 14 14 14 14 12 11 10 10 9 10 12 11 11 12 6 3 5 9 7 7 9 9 9 10
Wind_Direction
162 158 158 138 133 127 125 118 118 115 108 104 99 93 85 80 74 76 67 68 71 70 69 65 49 34 19 35 332 281 277 249 202 158 132 148 146 135 133 154 141 162 158
156 159 156 145 139 131 127 124 124 121 111 103 98 92 86 75 77 73 75 71 64 59 49 37 16 0 2 343 313 328 321 317 331 216 167 179 135 137 90 113 137 144 154
155 159 156 151 145 136 130 127 125 125 119 109 93 81 75 74 77 78 74 67 56 40 28 14 5 1 349 335 335 340 335 306 358 105 159 161 187 144 153 154 116 111 129
154 161 157 156 150 142 135 135 132 127 119 106 87 68 60 69 77 78 67 54 40 28 17 6 0 358 351 333 344 348 336 323 4 124 172 240 229 180 156 154 173 204 145
158 158 156 159 154 147 144 139 135 131 120 101 79 62 56 74 79 72 58 45 32 23 15 17 16 17 10 3 21 15 18 330 9 56 82 105 94 129 132 143 146 141 163
158 155 159 158 156 154 146 140 136 125 116 94 74 62 69 82 75 63 51 42 38 28 28 24 14 16 25 41 43 54 90 51 60 63 77 85 121 130 114 116 129 132 157
158 155 159 154 155 154 150 144 138 124 112 87 76 74 73 69 58 50 44 38 35 31 26 17 11 35 53 52 68 71 82 73 76 80 84 89 94 97 129 137 127 148 133
161 158 161 159 156 154 152 149 141 128 102 81 79 80 67 47 34 31 39 44 25 19 24 21 41 65 65 81 84 71 71 79 75 76 79 82 90 95 94 119 121 123 151
165 164 163 162 159 161 159 151 139 121 110 103 93 71 47 33 24 15 30 35 35 23 34 39 63 75 74 79 78 74 78 80 78 74 79 82 87 91 98 109 104 108 105
165 167 167 164 166 169 164 162 143 121 110 100 84 51 12 8 19 24 36 37 21 47 58 67 77 85 86 72 76 76 85 84 80 78 77 77 82 86 92 106 119 105 99
171 173 169 167 171 170 173 167 150 126 114 94 58 43 31 19 29 37 42 38 65 55 74 63 89 97 89 76 74 80 84 84 81 78 75 71 74 77 81 90 91 96 83
177 178 175 174 177 178 178 168 160 140 128 112 65 41 54 37 21 21 33 38 61 64 85 83 93 100 85 77 84 88 88 88 82 76 78 82 81 78 77 87 92 88 84
179 178 180 181 181 181 179 175 168 156 137 123 73 60 61 37 25 21 48 61 55 73 76 95 103 107 92 84 91 94 90 84 79 75 73 76 75 75 75 77 81 82 81
182 185 183 184 183 185 183 184 178 170 144 119 84 98 71 56 48 35 46 45 72 66 83 100 113 107 106 93 99 97 92 88 84 80 69 69 69 69 70 73 76 78 77
184 189 188 187 186 182 188 189 190 180 158 143 97 102 87 70 57 52 67 64 77 78 89 111 117 113 115 104 105 100 98 93 90 84 76 68 66 66 69 71 72 73 74
188 191 190 191 192 188 190 195 190 184 180 168 139 110 105 86 71 66 73 82 87 83 110 101 113 117 118 117 114 108 101 93 88 83 80 73 70 65 67 65 63 67 67
195 193 193 194 195 193 192 195 196 197 201 194 173 160 130 85 103 76 67 103 104 95 112 114 123 128 130 123 119 113 104 98 90 81 76 78 77 70 67 70 69 67 67
195 196 196 197 197 197 195 196 197 202 212 210 203 193 238 192 135 97 95 112 100 88 109 124 125 135 140 137 128 119 105 101 93 83 81 78 77 81 73 68 66 65 66
198 199 198 199 199 200 199 197 201 218 222 216 218 216 240 189 164 141 122 121 119 101 104 135 128 135 148 149 137 124 116 99 97 91 87 79 78 76 84 82 78 72 72
195 203 202 201 203 202 202 204 208 208 217 223 220 223 231 189 184 173 154 125 123 110 110 133 133 133 132 142 136 125 127 133 109 96 89 88 82 82 83 87 90 81 76
197 202 204 202 205 204 201 201 208 211 216 217 217 215 227 221 200 192 168 159 141 125 121 133 148 146 138 135 120 112 104 114 120 112 104 93 87 83 87 95 96 93 89
195 206 205 207 207 206 207 205 205 205 208 208 209 218 203 195 203 213 204 171 168 159 140 142 147 151 146 142 128 118 101 80 86 139 128 101 100 92 92 97 102 98 94
194 200 208 208 208 206 209 207 205 210 213 214 223 217 211 219 223 226 214 189 162 162 156 149 155 161 169 171 158 139 142 155 142 109 122 121 116 103 100 105 107 106 100
199 202 210 210 209 207 207 207 205 204 208 215 217 217 220 222 216 221 224 221 204 188 172 170 169 175 191 208 197 202 167 144 170 128 133 132 130 121 116 113 114 108 101
195 198 206 211 212 210 209 212 212 213 220 224 223 226 227 228 224 230 237 239 226 220 213 204 202 202 203 206 204 227 226 189 159 136 151 150 137 144 138 127 123 117 108
192 193 198 207 214 214 212 214 219 220 222 220 223 226 226 232 232 236 240 238 238 235 227 228 231 228 229 223 216 222 197 173 195 152 116 135 146 156 162 151 139 126 114